Find Kosmos-2512

NORAD ID: 41099 Int'l Des: 2015-071 Owner: PVO Country: RU operational
LEOCIRCULARRETROGRADESSO

Live Position

Loading 3D Globe...

About Kosmos-2512

Description loading...

Upcoming Passes

Passes for default location (London). Set your location on the main map for personalized predictions.

Altitude History

Loading altitude history...

Two-Line Element Set

1 41099U 15071B 26109.54805749 .00001773 00000-0 26805-3 0 9999
2 41099 98.0688 132.1643 0005352 189.1998 170.9114 14.75507877554507
Epoch: Apr 19, 2026 • Age: 7 hours

Current Status

Altitude 643.0 km
Velocity 7.54 km/s
Sub-Earth Point -1.19°S, 157.12°E
Launch Date Dec 5, 2015
Age 10.3 years
Type other

Technical Details

Classification Payload
Mass 16.00 kg
Dry Mass 16.00 kg
Total Mass 16.00 kg
Length 0.80 m
Diameter 0.80 m
Span 0.80 m
Shape Sphere
Manufacturer ALMAN
Bus Type SKRL
Phase Status In Orbit
Owner/State PVO/RU

Most Searched